Time,TemperatureF,DewpointF,PressureIn,WindDirection,WindDirectionDegrees,WindSpeedMPH,WindSpeedGustMPH,Humidity,HourlyPrecipIn,Conditions,Clouds,dailyrainin,SoftwareType,DateUTC
2013-11-25 00:01:00,18.1,-13.5,28.35,SSW,211,0.0,0.0,23,0.00,CLR,OVC,0.00,WeatherDisplay:10.37,2013-11-25 05:01:00,
2013-11-25 00:03:00,18.3,-13.4,28.35,SSW,202,0.0,0.0,23,0.00,CLR,OVC,0.00,WeatherDisplay:10.37,2013-11-25 05:03:00,
2013-11-25 00:08:00,18.3,-13.4,28.35,South,176,0.0,0.0,23,0.00,CLR,OVC,0.00,WeatherDisplay:10.37,2013-11-25 05:08:00,
2013-11-25 00:13:00,18.3,-13.4,28.35,SSW,197,0.0,0.0,23,0.00,CLR,OVC,0.00,WeatherDisplay:10.37,2013-11-25 05:13:00,
2013-11-25 00:18:00,18.3,-13.4,28.35,South,191,0.0,0.0,23,0.00,CLR,OVC,0.00,WeatherDisplay:10.37,2013-11-25 05:18:00,
2013-11-25 00:23:00,18.3,-13.4,28.35,SSW,204,0.0,0.0,23,0.00,CLR,OVC,0.00,WeatherDisplay:10.37,2013-11-25 05:23:00,
2013-11-25 00:28:00,18.3,-13.4,28.35,South,178,0.0,0.0,23,0.00,CLR,OVC,0.00,WeatherDisplay:10.37,2013-11-25 05:28:00,
2013-11-25 00:33:00,18.3,-13.4,28.35,SSW,198,0.0,0.0,23,0.00,CLR,OVC,0.00,WeatherDisplay:10.37,2013-11-25 05:33:00,
2013-11-25 00:38:00,18.3,-13.4,28.35,SSE,165,0.0,0.0,23,0.00,CLR,OVC,0.00,WeatherDisplay:10.37,2013-11-25 05:38:00,
2013-11-25 00:43:00,18.3,-13.4,28.35,SSW,209,0.0,0.0,23,0.00,CLR,OVC,0.00,WeatherDisplay:10.37,2013-11-25 05:43:00,
2013-11-25 00:48:00,18.3,-13.4,28.35,SSE,149,0.0,0.0,23,0.00,CLR,OVC,0.00,WeatherDisplay:10.37,2013-11-25 05:48:00,
2013-11-25 00:53:00,18.3,-13.4,28.35,South,191,0.0,0.0,23,0.00,CLR,OVC,0.00,WeatherDisplay:10.37,2013-11-25 05:53:00,
2013-11-25 00:58:00,18.3,-13.4,28.32,SSW,193,0.0,0.0,23,0.00,CLR,OVC,0.00,WeatherDisplay:10.37,2013-11-25 05:58:00,
2013-11-25 01:03:00,18.3,-13.4,28.32,SSE,149,0.0,0.0,23,0.00,CLR,OVC,0.00,WeatherDisplay:10.37,2013-11-25 06:03:00,
2013-11-25 01:08:00,18.5,-13.2,28.32,SSW,201,0.0,0.0,23,0.00,CLR,OVC,0.00,WeatherDisplay:10.37,2013-11-25 06:08:00,
2013-11-25 01:13:00,18.7,-14.0,28.32,SSE,158,0.0,3.5,22,0.00,CLR,OVC,0.00,WeatherDisplay:10.37,2013-11-25 06:13:00,
2013-11-25 01:18:00,18.7,-14.0,28.32,SSW,195,0.0,0.0,22,0.00,CLR,OVC,0.00,WeatherDisplay:10.37,2013-11-25 06:18:00,
2013-11-25 01:23:00,18.7,-14.0,28.32,SSE,166,0.0,0.0,22,0.00,CLR,OVC,0.00,WeatherDisplay:10.37,2013-11-25 06:23:00,
2013-11-25 01:28:00,18.7,-14.0,28.32,SSE,158,0.0,0.0,22,0.00,CLR,OVC,0.00,WeatherDisplay:10.37,2013-11-25 06:28:00,
2013-11-25 01:33:00,18.7,-14.0,28.32,South,172,3.6,5.8,22,0.00,CLR,OVC,0.00,WeatherDisplay:10.37,2013-11-25 06:33:00,
2013-11-25 01:38:00,18.7,-14.0,28.32,SSW,204,0.0,5.8,22,0.00,CLR,OVC,0.00,WeatherDisplay:10.37,2013-11-25 06:38:00,
2013-11-25 01:43:00,18.7,-14.0,28.32,South,174,3.1,5.8,22,0.00,CLR,OVC,0.00,WeatherDisplay:10.37,2013-11-25 06:43:00,
2013-11-25 01:48:00,18.7,-14.0,28.32,SSW,192,3.6,5.8,22,0.00,CLR,OVC,0.00,WeatherDisplay:10.37,2013-11-25 06:48:00,
2013-11-25 01:53:00,18.7,-14.0,28.32,South,191,4.0,4.0,22,0.00,CLR,OVC,0.00,WeatherDisplay:10.37,2013-11-25 06:53:00,
2013-11-25 01:58:00,18.7,-14.0,28.29,South,185,8.0,9.2,22,0.00,CLR,OVC,0.00,WeatherDisplay:10.37,2013-11-25 06:58:00,
2013-11-25 02:03:00,21.6,-8.9,28.29,West,271,4.0,10.4,25,0.00,CLR,OVC,0.00,WeatherDisplay:10.37,2013-11-25 07:03:00,
2013-11-25 02:08:00,21.7,-8.8,28.29,West,271,4.0,4.0,25,0.00,CLR,OVC,0.00,WeatherDisplay:10.37,2013-11-25 07:08:00,
2013-11-25 02:13:00,21.9,-8.6,28.29,SSE,166,6.3,6.3,25,0.00,CLR,OVC,0.00,WeatherDisplay:10.37,2013-11-25 07:13:00,
2013-11-25 02:18:00,21.9,-8.6,28.29,WSW,237,5.8,5.8,25,0.00,CLR,OVC,0.00,WeatherDisplay:10.37,2013-11-25 07:18:00,
2013-11-25 02:23:00,22.1,-8.4,28.29,South,188,3.6,3.6,25,0.00,CLR,OVC,0.00,WeatherDisplay:10.37,2013-11-25 07:23:00,
2013-11-25 02:28:00,22.3,-9.1,28.29,SSE,160,8.3,8.3,24,0.00,CLR,OVC,0.00,WeatherDisplay:10.37,2013-11-25 07:28:00,
2013-11-25 02:33:00,22.3,-9.1,28.29,SSE,160,8.3,8.3,24,0.00,CLR,OVC,0.00,WeatherDisplay:10.37,2013-11-25 07:33:00,
2013-11-25 02:38:00,22.5,-9.0,28.29,South,188,5.4,5.4,24,0.00,CLR,OVC,0.00,WeatherDisplay:10.37,2013-11-25 07:38:00,
2013-11-25 02:43:00,22.5,-9.0,28.29,SSW,201,4.5,4.6,24,0.00,CLR,OVC,0.00,WeatherDisplay:10.37,2013-11-25 07:43:00,
2013-11-25 02:48:00,22.5,-9.0,28.29,SSW,206,8.3,10.4,24,0.00,CLR,OVC,0.00,WeatherDisplay:10.37,2013-11-25 07:48:00,
2013-11-25 02:53:00,22.6,-8.8,28.29,SW,219,8.0,8.1,24,0.00,CLR,OVC,0.00,WeatherDisplay:10.37,2013-11-25 07:53:00,
2013-11-25 02:58:00,22.6,-8.8,28.26,SSE,158,6.3,8.1,24,0.00,CLR,OVC,0.00,WeatherDisplay:10.37,2013-11-25 07:58:00,
2013-11-25 03:03:00,22.6,-8.8,28.26,SSE,158,6.3,6.3,24,0.00,CLR,OVC,0.00,WeatherDisplay:10.37,2013-11-25 08:03:00,
2013-11-25 03:08:00,22.6,-8.8,28.26,SSE,158,6.3,6.3,24,0.00,CLR,OVC,0.00,WeatherDisplay:10.37,2013-11-25 08:08:00,
2013-11-25 03:13:00,22.6,-8.8,28.26,South,174,4.9,5.8,24,0.00,CLR,OVC,0.00,WeatherDisplay:10.37,2013-11-25 08:13:00,
2013-11-25 03:18:00,22.6,-8.8,28.26,SW,236,4.9,8.1,24,0.00,CLR,OVC,0.00,WeatherDisplay:10.37,2013-11-25 08:18:00,
2013-11-25 03:23:00,22.6,-8.8,28.26,SSE,155,8.3,15.0,24,0.00,CLR,OVC,0.00,WeatherDisplay:10.37,2013-11-25 08:23:00,
2013-11-25 03:28:00,22.6,-8.8,28.26,South,181,3.1,5.8,24,0.00,CLR,OVC,0.00,WeatherDisplay:10.37,2013-11-25 08:28:00,
2013-11-25 03:33:00,22.8,-8.7,28.26,SW,215,4.5,4.5,24,0.00,CLR,OVC,0.00,WeatherDisplay:10.37,2013-11-25 08:33:00,
2013-11-25 03:38:00,22.8,-8.7,28.26,SSW,197,4.5,5.8,24,0.00,CLR,OVC,0.00,WeatherDisplay:10.37,2013-11-25 08:38:00,
2013-11-25 03:43:00,23.0,-8.5,28.23,South,179,3.1,3.5,24,0.00,CLR,OVC,0.00,WeatherDisplay:10.37,2013-11-25 08:43:00,
2013-11-25 03:48:00,23.0,-8.5,28.23,West,259,6.7,10.4,24,0.00,CLR,OVC,0.00,WeatherDisplay:10.37,2013-11-25 08:48:00,
2013-11-25 03:53:00,23.0,-8.5,28.23,WSW,255,4.5,11.5,24,0.00,CLR,OVC,0.00,WeatherDisplay:10.37,2013-11-25 08:53:00,
2013-11-25 03:58:00,23.0,-8.5,28.23,SSW,194,4.9,9.2,24,0.00,CLR,OVC,0.00,WeatherDisplay:10.37,2013-11-25 08:58:00,
2013-11-25 04:03:00,23.0,-8.5,28.23,SSW,209,6.3,10.4,24,0.00,CLR,OVC,0.00,WeatherDisplay:10.37,2013-11-25 09:03:00,
2013-11-25 04:08:00,23.0,-8.5,28.23,South,179,8.0,9.2,24,0.00,CLR,OVC,0.00,WeatherDisplay:10.37,2013-11-25 09:08:00,
2013-11-25 04:13:00,23.0,-8.5,28.23,SSW,197,6.7,12.7,24,0.00,CLR,OVC,0.00,WeatherDisplay:10.37,2013-11-25 09:13:00,
2013-11-25 04:18:00,23.0,-8.5,28.23,SW,236,5.8,10.4,24,0.00,CLR,OVC,0.00,WeatherDisplay:10.37,2013-11-25 09:18:00,
2013-11-25 04:23:00,23.5,-8.0,28.23,West,260,4.5,5.8,24,0.00,CLR,OVC,0.00,WeatherDisplay:10.37,2013-11-25 09:23:00,
2013-11-25 04:28:00,23.5,-8.0,28.23,SW,218,6.3,8.1,24,0.00,CLR,OVC,0.00,WeatherDisplay:10.37,2013-11-25 09:28:00,
2013-11-25 04:33:00,23.5,-8.0,28.23,SSW,211,6.3,10.4,24,0.00,CLR,OVC,0.00,WeatherDisplay:10.37,2013-11-25 09:33:00,
2013-11-25 04:38:00,23.5,-5.6,28.23,West,259,5.8,5.8,27,0.00,CLR,OVC,0.00,WeatherDisplay:10.37,2013-11-25 09:38:00,
2013-11-25 04:43:00,23.7,-5.5,28.23,WSW,253,4.0,5.8,27,0.00,CLR,OVC,0.00,WeatherDisplay:10.37,2013-11-25 09:43:00,
2013-11-25 04:48:00,23.7,-5.5,28.23,West,277,4.5,8.1,27,0.00,CLR,OVC,0.00,WeatherDisplay:10.37,2013-11-25 09:48:00,
2013-11-25 04:53:00,23.9,-5.3,28.23,SSW,194,3.6,8.1,27,0.00,CLR,OVC,0.00,WeatherDisplay:10.37,2013-11-25 09:53:00,
2013-11-25 04:58:00,23.9,-5.3,28.23,SW,221,4.5,8.1,27,0.00,CLR,OVC,0.00,WeatherDisplay:10.37,2013-11-25 09:58:00,
2013-11-25 05:03:00,23.9,-5.3,28.23,SSW,198,6.3,6.3,27,0.00,CLR,OVC,0.00,WeatherDisplay:10.37,2013-11-25 10:03:00,
2013-11-25 05:08:00,23.9,-5.3,28.23,SW,225,5.4,11.5,27,0.00,CLR,OVC,0.00,WeatherDisplay:10.37,2013-11-25 10:08:00,
2013-11-25 05:13:00,23.9,-5.3,28.20,South,190,2.2,4.6,27,0.00,CLR,OVC,0.00,WeatherDisplay:10.37,2013-11-25 10:13:00,
2013-11-25 05:18:00,23.9,-5.3,28.20,West,265,5.8,10.4,27,0.00,CLR,OVC,0.00,WeatherDisplay:10.37,2013-11-25 10:18:00,
2013-11-25 05:23:00,24.1,-5.9,28.20,SSW,197,5.4,8.1,26,0.00,CLR,OVC,0.00,WeatherDisplay:10.37,2013-11-25 10:23:00,
2013-11-25 05:28:00,24.3,-5.8,28.20,SW,225,5.8,10.4,26,0.00,CLR,OVC,0.00,WeatherDisplay:10.37,2013-11-25 10:28:00,
2013-11-25 05:33:00,24.3,-5.8,28.20,SW,225,4.0,12.7,26,0.00,CLR,OVC,0.00,WeatherDisplay:10.37,2013-11-25 10:33:00,
2013-11-25 05:38:00,24.3,-5.8,28.20,WSW,251,4.9,11.5,26,0.00,CLR,OVC,0.00,WeatherDisplay:10.37,2013-11-25 10:38:00,
2013-11-25 05:43:00,24.4,-5.6,28.20,SW,221,5.4,9.2,26,0.00,CLR,OVC,0.00,WeatherDisplay:10.37,2013-11-25 10:43:00,
2013-11-25 05:48:00,24.4,-5.6,28.20,WSW,253,4.0,8.1,26,0.00,CLR,OVC,0.00,WeatherDisplay:10.37,2013-11-25 10:48:00,
2013-11-25 05:53:00,24.4,-5.6,28.20,WSW,250,3.6,5.8,26,0.00,CLR,OVC,0.00,WeatherDisplay:10.37,2013-11-25 10:53:00,
2013-11-25 05:58:00,24.4,-5.6,28.20,SSE,152,6.7,10.4,26,0.00,CLR,OVC,0.00,WeatherDisplay:10.37,2013-11-25 10:58:00,
2013-11-25 06:03:00,24.4,-3.3,28.20,WSW,248,9.2,17.3,29,0.00,CLR,OVC,0.00,WeatherDisplay:10.37,2013-11-25 11:03:00,
2013-11-25 06:08:00,24.3,-2.1,28.20,SSE,166,5.4,11.5,31,0.00,CLR,OVC,0.00,WeatherDisplay:10.37,2013-11-25 11:08:00,
2013-11-25 06:13:00,24.3,-2.1,28.20,SSW,206,4.9,8.1,31,0.00,CLR,OVC,0.00,WeatherDisplay:10.37,2013-11-25 11:13:00,
2013-11-25 06:18:00,24.1,-1.6,28.20,SW,235,8.7,8.7,32,0.00,CLR,OVC,0.00,WeatherDisplay:10.37,2013-11-25 11:18:00,
2013-11-25 06:23:00,24.1,-1.6,28.20,SE,146,9.2,12.7,32,0.00,CLR,OVC,0.00,WeatherDisplay:10.37,2013-11-25 11:23:00,
2013-11-25 06:28:00,24.1,-1.6,28.17,West,259,7.6,11.5,32,0.00,CLR,OVC,0.00,WeatherDisplay:10.37,2013-11-25 11:28:00,
2013-11-25 06:33:00,24.1,-1.6,28.17,South,191,4.9,5.8,32,0.00,CLR,OVC,0.00,WeatherDisplay:10.37,2013-11-25 11:33:00,
2013-11-25 06:38:00,23.9,-1.1,28.17,WNW,283,6.7,9.2,33,0.00,CLR,OVC,0.00,WeatherDisplay:10.37,2013-11-25 11:38:00,
2013-11-25 06:43:00,23.9,-0.4,28.20,West,278,7.6,9.2,34,0.00,CLR,OVC,0.00,WeatherDisplay:10.37,2013-11-25 11:43:00,
2013-11-25 06:48:00,23.9,0.2,28.20,West,259,3.1,3.5,35,0.00,CLR,OVC,0.00,WeatherDisplay:10.37,2013-11-25 11:48:00,
2013-11-25 06:53:00,23.7,0.6,28.20,WSW,250,7.6,9.2,36,0.00,CLR,OVC,0.00,WeatherDisplay:10.37,2013-11-25 11:53:00,
2013-11-25 06:58:00,23.7,1.2,28.20,WSW,237,7.6,11.5,37,0.00,CLR,OVC,0.00,WeatherDisplay:10.37,2013-11-25 11:58:00,
2013-11-25 07:03:00,23.7,1.8,28.20,West,260,7.2,8.1,38,0.00,CLR,OVC,0.00,WeatherDisplay:10.37,2013-11-25 12:03:00,
2013-11-25 07:08:00,23.7,1.8,28.20,SW,221,4.5,9.2,38,0.00,CLR,OVC,0.00,WeatherDisplay:10.37,2013-11-25 12:08:00,
2013-11-25 07:13:00,23.7,1.8,28.17,SW,217,3.1,5.8,38,0.00,CLR,OVC,0.00,WeatherDisplay:10.37,2013-11-25 12:13:00,
2013-11-25 07:18:00,23.7,1.8,28.17,SW,221,6.3,8.1,38,0.00,CLR,OVC,0.00,WeatherDisplay:10.37,2013-11-25 12:18:00,
2013-11-25 07:23:00,23.7,1.8,28.17,South,177,6.7,6.7,38,0.00,CLR,OVC,0.00,WeatherDisplay:10.37,2013-11-25 12:23:00,
2013-11-25 07:28:00,23.9,1.9,28.17,SW,219,4.0,4.6,38,0.00,CLR,OVC,0.00,WeatherDisplay:10.37,2013-11-25 12:28:00,
2013-11-25 07:33:00,23.9,1.9,28.17,WSW,256,6.3,9.2,38,0.00,CLR,OVC,0.00,WeatherDisplay:10.37,2013-11-25 12:33:00,
2013-11-25 07:38:00,23.9,1.4,28.17,SW,232,6.7,8.1,37,0.00,CLR,OVC,0.00,WeatherDisplay:10.37,2013-11-25 12:38:00,
2013-11-25 07:43:00,24.1,0.9,28.17,SW,228,3.1,9.2,36,0.00,CLR,OVC,0.00,WeatherDisplay:10.37,2013-11-25 12:43:00,
2013-11-25 07:48:00,24.1,0.9,28.17,WSW,257,6.7,10.4,36,0.00,CLR,OVC,0.00,WeatherDisplay:10.37,2013-11-25 12:48:00,
2013-11-25 07:53:00,24.3,1.1,28.17,WSW,255,6.3,12.7,36,0.00,CLR,OVC,0.00,WeatherDisplay:10.37,2013-11-25 12:53:00,
2013-11-25 07:58:00,24.4,1.3,28.17,SW,223,3.6,5.8,36,0.00,CLR,OVC,0.00,WeatherDisplay:10.37,2013-11-25 12:58:00,
2013-11-25 08:03:00,24.4,1.3,28.17,WSW,251,6.3,6.3,36,0.00,CLR,OVC,0.00,WeatherDisplay:10.37,2013-11-25 13:03:00,
2013-11-25 08:08:00,24.4,0.7,28.17,WSW,245,4.0,8.1,35,0.00,CLR,OVC,0.00,WeatherDisplay:10.37,2013-11-25 13:08:00,
2013-11-25 08:13:00,24.6,0.8,28.17,SE,138,7.2,8.1,35,0.00,CLR,OVC,0.00,WeatherDisplay:10.37,2013-11-25 13:13:00,
2013-11-25 08:18:00,24.6,0.8,28.17,West,271,6.7,10.4,35,0.00,CLR,OVC,0.00,WeatherDisplay:10.37,2013-11-25 13:18:00,
2013-11-25 08:23:00,24.6,0.8,28.17,WSW,252,8.3,11.5,35,0.00,CLR,OVC,0.00,WeatherDisplay:10.37,2013-11-25 13:23:00,
2013-11-25 08:28:00,24.8,1.0,28.17,West,262,4.0,5.8,35,0.00,CLR,OVC,0.00,WeatherDisplay:10.37,2013-11-25 13:28:00,
2013-11-25 08:33:00,24.8,1.0,28.17,South,177,8.0,8.1,35,0.00,CLR,OVC,0.00,WeatherDisplay:10.37,2013-11-25 13:33:00,
2013-11-25 08:38:00,24.8,1.0,28.17,West,266,9.6,10.4,35,0.00,CLR,OVC,0.00,WeatherDisplay:10.37,2013-11-25 13:38:00,
2013-11-25 08:43:00,25.0,1.1,28.17,SSW,203,3.1,5.8,35,0.00,CLR,OVC,0.00,WeatherDisplay:10.37,2013-11-25 13:43:00,
2013-11-25 08:48:00,25.2,1.3,28.17,SSE,165,4.0,8.1,35,0.00,CLR,OVC,0.00,WeatherDisplay:10.37,2013-11-25 13:48:00,
2013-11-25 08:53:00,25.2,1.3,28.17,West,260,5.4,11.5,35,0.00,CLR,OVC,0.00,WeatherDisplay:10.37,2013-11-25 13:53:00,
2013-11-25 08:58:00,25.2,1.3,28.17,WSW,237,2.7,5.8,35,0.00,CLR,OVC,0.00,WeatherDisplay:10.37,2013-11-25 13:58:00,
2013-11-25 09:03:00,25.2,1.9,28.17,WNW,282,5.8,6.9,36,0.00,CLR,OVC,0.00,WeatherDisplay:10.37,2013-11-25 14:03:00,
2013-11-25 09:08:00,25.2,1.9,28.17,West,264,6.7,10.9,36,0.00,CLR,OVC,0.00,WeatherDisplay:10.37,2013-11-25 14:08:00,
2013-11-25 09:13:00,25.3,2.1,28.17,WSW,241,7.2,9.2,36,0.00,CLR,OVC,0.00,WeatherDisplay:10.37,2013-11-25 14:13:00,
2013-11-25 09:18:00,25.3,2.1,28.17,WSW,241,3.1,5.8,36,0.00,CLR,OVC,0.00,WeatherDisplay:10.37,2013-11-25 14:18:00,
2013-11-25 09:23:00,25.3,2.1,28.17,West,271,6.3,8.1,36,0.00,CLR,OVC,0.00,WeatherDisplay:10.37,2013-11-25 14:23:00,
2013-11-25 09:28:00,25.5,2.2,28.17,WSW,257,3.6,4.6,36,0.00,CLR,OVC,0.00,WeatherDisplay:10.37,2013-11-25 14:28:00,
2013-11-25 09:33:00,25.5,2.8,28.17,South,189,4.9,5.8,37,0.00,CLR,OVC,0.00,WeatherDisplay:10.37,2013-11-25 14:33:00,
2013-11-25 09:38:00,25.5,2.2,28.17,West,262,4.5,6.9,36,0.00,CLR,OVC,0.00,WeatherDisplay:10.37,2013-11-25 14:38:00,
2013-11-25 09:43:00,25.7,3.0,28.17,SW,233,6.3,10.4,37,0.00,CLR,OVC,0.00,WeatherDisplay:10.37,2013-11-25 14:43:00,
2013-11-25 09:48:00,25.7,3.0,28.17,WSW,246,9.2,12.7,37,0.00,CLR,OVC,0.00,WeatherDisplay:10.37,2013-11-25 14:48:00,
2013-11-25 09:53:00,25.9,2.5,28.17,WSW,250,6.7,8.1,36,0.00,CLR,OVC,0.00,WeatherDisplay:10.37,2013-11-25 14:53:00,
2013-11-25 09:58:00,25.9,2.5,28.17,South,170,6.3,8.1,36,0.00,CLR,OVC,0.00,WeatherDisplay:10.37,2013-11-25 14:58:00,
2013-11-25 10:03:00,26.1,2.7,28.17,SW,232,3.1,3.5,36,0.00,CLR,OVC,0.00,WeatherDisplay:10.37,2013-11-25 15:03:00,
2013-11-25 10:08:00,26.1,2.1,28.17,SSW,199,4.9,8.1,35,0.00,CLR,OVC,0.00,WeatherDisplay:10.37,2013-11-25 15:08:00,
2013-11-25 10:13:00,26.1,2.7,28.17,South,190,4.5,8.1,36,0.00,CLR,OVC,0.00,WeatherDisplay:10.37,2013-11-25 15:13:00,
2013-11-25 10:18:00,26.2,2.9,28.17,ENE,58,6.7,8.1,36,0.00,CLR,OVC,0.00,WeatherDisplay:10.37,2013-11-25 15:18:00,
2013-11-25 10:23:00,26.2,2.9,28.17,WSW,245,2.2,3.5,36,0.00,CLR,OVC,0.00,WeatherDisplay:10.37,2013-11-25 15:23:00,
2013-11-25 10:28:00,26.2,2.3,28.17,SW,228,6.3,8.1,35,0.00,CLR,OVC,0.00,WeatherDisplay:10.37,2013-11-25 15:28:00,
2013-11-25 10:33:00,26.4,2.4,28.17,WSW,241,3.6,5.8,35,0.00,CLR,OVC,0.00,WeatherDisplay:10.37,2013-11-25 15:33:00,
2013-11-25 10:38:00,26.4,2.4,28.17,South,185,4.5,8.1,35,0.00,CLR,OVC,0.00,WeatherDisplay:10.37,2013-11-25 15:38:00,
2013-11-25 10:43:00,26.6,3.2,28.17,WSW,238,5.8,9.2,36,0.00,CLR,OVC,0.00,WeatherDisplay:10.37,2013-11-25 15:43:00,
2013-11-25 10:48:00,26.8,3.4,28.17,West,277,6.7,8.1,36,0.00,CLR,OVC,0.00,WeatherDisplay:10.37,2013-11-25 15:48:00,
2013-11-25 10:53:00,27.0,2.9,28.17,WSW,254,6.3,6.3,35,0.00,CLR,OVC,0.00,WeatherDisplay:10.37,2013-11-25 15:53:00,
2013-11-25 10:58:00,27.0,2.9,28.17,West,262,2.2,4.6,35,0.00,CLR,OVC,0.00,WeatherDisplay:10.37,2013-11-25 15:58:00,
2013-11-25 11:03:00,27.0,2.9,28.17,WSW,256,3.6,5.8,35,0.00,CLR,OVC,0.00,WeatherDisplay:10.37,2013-11-25 16:03:00,
2013-11-25 11:08:00,27.0,2.9,28.17,West,263,4.0,5.8,35,0.00,CLR,OVC,0.00,WeatherDisplay:10.37,2013-11-25 16:08:00,
2013-11-25 11:13:00,27.0,2.9,28.17,West,260,4.9,11.5,35,0.00,CLR,OVC,0.00,WeatherDisplay:10.37,2013-11-25 16:13:00,
2013-11-25 11:18:00,27.1,3.1,28.17,WSW,247,3.1,5.8,35,0.00,CLR,OVC,0.00,WeatherDisplay:10.37,2013-11-25 16:18:00,
2013-11-25 11:23:00,27.1,3.1,28.17,SSE,156,5.4,11.5,35,0.00,CLR,OVC,0.00,WeatherDisplay:10.37,2013-11-25 16:23:00,
2013-11-25 11:28:00,27.3,3.2,28.17,WSW,237,4.5,9.2,35,0.00,CLR,OVC,0.00,WeatherDisplay:10.37,2013-11-25 16:28:00,
2013-11-25 11:33:00,27.3,3.2,28.17,WSW,247,8.0,15.0,35,0.00,CLR,OVC,0.00,WeatherDisplay:10.37,2013-11-25 16:33:00,
2013-11-25 11:38:00,27.5,3.4,28.17,SSW,195,2.7,5.8,35,0.00,CLR,OVC,0.00,WeatherDisplay:10.37,2013-11-25 16:38:00,
2013-11-25 11:43:00,27.5,3.4,28.17,West,265,5.8,5.8,35,0.00,CLR,OVC,0.00,WeatherDisplay:10.37,2013-11-25 16:43:00,
2013-11-25 11:48:00,27.7,3.5,28.17,WSW,239,5.8,8.1,35,0.00,CLR,OVC,0.00,WeatherDisplay:10.37,2013-11-25 16:48:00,
2013-11-25 11:53:00,27.7,3.5,28.17,West,266,4.0,8.1,35,0.00,CLR,OVC,0.00,WeatherDisplay:10.37,2013-11-25 16:53:00,
2013-11-25 11:58:00,27.7,3.5,28.17,West,260,3.1,5.8,35,0.00,CLR,OVC,0.00,WeatherDisplay:10.37,2013-11-25 16:58:00,
2013-11-25 12:03:00,27.7,3.5,28.17,WSW,238,4.9,6.9,35,0.00,CLR,OVC,0.00,WeatherDisplay:10.37,2013-11-25 17:03:00,
2013-11-25 12:08:00,27.7,3.5,28.17,West,272,2.7,8.1,35,0.00,CLR,OVC,0.00,WeatherDisplay:10.37,2013-11-25 17:08:00,
2013-11-25 12:13:00,27.9,3.7,28.17,SW,234,3.1,6.9,35,0.00,CLR,OVC,0.00,WeatherDisplay:10.37,2013-11-25 17:13:00,
2013-11-25 12:18:00,28.0,3.9,28.17,West,259,6.7,8.1,35,0.00,CLR,OVC,0.00,WeatherDisplay:10.37,2013-11-25 17:18:00,
2013-11-25 12:23:00,28.2,4.0,28.17,South,188,4.0,4.6,35,0.00,CLR,OVC,0.00,WeatherDisplay:10.37,2013-11-25 17:23:00,
2013-11-25 12:28:00,28.4,4.2,28.17,West,276,4.5,5.8,35,0.00,CLR,OVC,0.00,WeatherDisplay:10.37,2013-11-25 17:28:00,
2013-11-25 12:33:00,28.6,4.3,28.17,WSW,256,4.0,4.0,35,0.00,CLR,OVC,0.00,WeatherDisplay:10.37,2013-11-25 17:33:00,
2013-11-25 12:38:00,28.8,4.5,28.17,West,274,4.9,8.1,35,0.00,CLR,OVC,0.00,WeatherDisplay:10.37,2013-11-25 17:38:00,
2013-11-25 12:43:00,28.8,4.5,28.17,WSW,237,6.7,9.2,35,0.00,CLR,OVC,0.00,WeatherDisplay:10.37,2013-11-25 17:43:00,
2013-11-25 12:48:00,28.9,4.7,28.17,WSW,239,2.2,12.7,35,0.00,CLR,OVC,0.00,WeatherDisplay:10.37,2013-11-25 17:48:00,
2013-11-25 12:53:00,28.9,4.7,28.17,SW,218,5.8,8.1,35,0.00,CLR,OVC,0.00,WeatherDisplay:10.37,2013-11-25 17:53:00,
2013-11-25 12:58:00,28.9,4.7,28.17,West,260,5.8,8.1,35,0.00,CLR,OVC,0.00,WeatherDisplay:10.37,2013-11-25 17:58:00,
2013-11-25 13:03:00,28.9,5.3,28.17,WSW,249,2.2,8.1,36,0.00,CLR,OVC,0.00,WeatherDisplay:10.37,2013-11-25 18:03:00,
2013-11-25 13:08:00,29.1,5.4,28.17,West,260,5.4,8.1,36,0.00,CLR,OVC,0.00,WeatherDisplay:10.37,2013-11-25 18:08:00,
2013-11-25 13:13:00,29.3,5.6,28.17,SW,218,4.0,5.8,36,0.00,CLR,OVC,0.00,WeatherDisplay:10.37,2013-11-25 18:13:00,
2013-11-25 13:18:00,29.3,5.0,28.17,WSW,251,4.5,10.4,35,0.00,CLR,OVC,0.00,WeatherDisplay:10.37,2013-11-25 18:18:00,
2013-11-25 13:23:00,29.5,5.1,28.17,SW,221,4.5,5.8,35,0.00,CLR,OVC,0.00,WeatherDisplay:10.37,2013-11-25 18:23:00,
2013-11-25 13:28:00,29.7,5.3,28.17,SW,218,3.6,6.9,35,0.00,CLR,OVC,0.00,WeatherDisplay:10.37,2013-11-25 18:28:00,
2013-11-25 13:33:00,30.0,6.2,28.17,WSW,252,2.7,5.8,36,0.00,CLR,OVC,0.00,WeatherDisplay:10.37,2013-11-25 18:33:00,
2013-11-25 13:38:00,30.4,5.9,28.17,WSW,256,5.4,9.2,35,0.00,CLR,OVC,0.00,WeatherDisplay:10.37,2013-11-25 18:38:00,
2013-11-25 13:43:00,30.9,5.8,28.17,SW,231,6.7,10.4,34,0.00,CLR,OVC,0.00,WeatherDisplay:10.37,2013-11-25 18:43:00,
2013-11-25 13:48:00,31.1,6.0,28.17,WSW,257,8.0,9.2,34,0.00,CLR,OVC,0.00,WeatherDisplay:10.37,2013-11-25 18:48:00,
2013-11-25 13:53:00,31.1,6.0,28.17,WSW,244,5.4,9.2,34,0.00,CLR,OVC,0.00,WeatherDisplay:10.37,2013-11-25 18:53:00,
2013-11-25 13:58:00,31.3,6.1,28.17,WSW,257,8.0,8.1,34,0.00,CLR,OVC,0.00,WeatherDisplay:10.37,2013-11-25 18:58:00,
2013-11-25 14:03:00,31.5,6.3,28.17,West,269,7.2,10.4,34,0.00,CLR,OVC,0.00,WeatherDisplay:10.37,2013-11-25 19:03:00,
2013-11-25 14:08:00,31.6,6.4,28.17,WSW,258,6.7,9.2,34,0.00,CLR,OVC,0.00,WeatherDisplay:10.37,2013-11-25 19:08:00,
2013-11-25 14:13:00,31.6,6.4,28.17,WSW,246,6.3,10.4,34,0.00,CLR,OVC,0.00,WeatherDisplay:10.37,2013-11-25 19:13:00,
2013-11-25 14:18:00,31.6,6.4,28.17,WSW,250,6.3,15.0,34,0.00,CLR,OVC,0.00,WeatherDisplay:10.37,2013-11-25 19:18:00,
2013-11-25 14:23:00,31.6,6.4,28.17,SW,235,4.5,9.2,34,0.00,CLR,OVC,0.00,WeatherDisplay:10.37,2013-11-25 19:23:00,
2013-11-25 14:28:00,31.6,6.4,28.17,WSW,239,6.7,9.2,34,0.00,CLR,OVC,0.00,WeatherDisplay:10.37,2013-11-25 19:28:00,
2013-11-25 14:33:00,31.6,6.4,28.17,WSW,242,5.8,9.2,34,0.00,CLR,OVC,0.00,WeatherDisplay:10.37,2013-11-25 19:33:00,
2013-11-25 14:38:00,31.6,6.4,28.17,SSE,162,7.2,15.0,34,0.00,CLR,OVC,0.00,WeatherDisplay:10.37,2013-11-25 19:38:00,
2013-11-25 14:43:00,31.6,6.4,28.17,SW,218,3.6,5.8,34,0.00,CLR,OVC,0.00,WeatherDisplay:10.37,2013-11-25 19:43:00,
2013-11-25 14:48:00,31.8,6.6,28.17,WSW,248,7.2,10.4,34,0.00,CLR,OVC,0.00,WeatherDisplay:10.37,2013-11-25 19:48:00,
2013-11-25 14:53:00,32.0,6.8,28.17,West,280,6.7,9.2,34,0.00,CLR,OVC,0.00,WeatherDisplay:10.37,2013-11-25 19:53:00,
2013-11-25 14:58:00,32.2,6.3,28.17,SW,220,3.6,6.9,33,0.00,CLR,OVC,0.00,WeatherDisplay:10.37,2013-11-25 19:58:00,
2013-11-25 15:03:00,32.7,6.7,28.17,South,173,6.3,8.1,33,0.00,CLR,OVC,0.00,WeatherDisplay:10.37,2013-11-25 20:03:00,
2013-11-25 15:08:00,32.7,6.7,28.17,SW,225,5.8,8.1,33,0.00,CLR,OVC,0.00,WeatherDisplay:10.37,2013-11-25 20:08:00,
2013-11-25 15:13:00,32.7,6.7,28.17,SW,232,5.4,8.1,33,0.00,CLR,OVC,0.00,WeatherDisplay:10.37,2013-11-25 20:13:00,
2013-11-25 15:18:00,32.7,6.7,28.17,West,260,4.5,5.8,33,0.00,CLR,OVC,0.00,WeatherDisplay:10.37,2013-11-25 20:18:00,
2013-11-25 15:23:00,32.7,6.7,28.17,WSW,249,7.6,9.2,33,0.00,CLR,OVC,0.00,WeatherDisplay:10.37,2013-11-25 20:23:00,
2013-11-25 15:28:00,32.7,6.7,28.17,WSW,258,5.4,5.8,33,0.00,CLR,OVC,0.00,WeatherDisplay:10.37,2013-11-25 20:28:00,
2013-11-25 15:33:00,32.7,6.7,28.17,WSW,258,5.4,5.8,33,0.00,CLR,OVC,0.00,WeatherDisplay:10.37,2013-11-25 20:33:00,
2013-11-25 15:38:00,32.7,6.7,28.17,WNW,300,6.7,12.7,33,0.00,CLR,OVC,0.00,WeatherDisplay:10.37,2013-11-25 20:38:00,
2013-11-25 15:43:00,32.7,6.7,28.20,West,273,6.3,8.1,33,0.00,CLR,OVC,0.00,WeatherDisplay:10.37,2013-11-25 20:43:00,
2013-11-25 15:48:00,32.7,6.7,28.20,West,260,6.7,10.4,33,0.00,CLR,OVC,0.00,WeatherDisplay:10.37,2013-11-25 20:48:00,
2013-11-25 15:53:00,32.4,6.4,28.20,WSW,256,7.6,8.1,33,0.00,CLR,OVC,0.00,WeatherDisplay:10.37,2013-11-25 20:53:00,
2013-11-25 15:58:00,32.4,6.4,28.20,WSW,258,4.9,8.1,33,0.00,CLR,OVC,0.00,WeatherDisplay:10.37,2013-11-25 20:58:00,
2013-11-25 16:03:00,32.4,7.1,28.20,West,259,2.7,8.1,34,0.00,CLR,OVC,0.00,WeatherDisplay:10.37,2013-11-25 21:03:00,
2013-11-25 16:08:00,32.4,7.1,28.20,WNW,294,2.7,5.8,34,0.00,CLR,OVC,0.00,WeatherDisplay:10.37,2013-11-25 21:08:00,
2013-11-25 16:13:00,32.4,6.4,28.20,WNW,286,6.7,8.3,33,0.00,CLR,OVC,0.00,WeatherDisplay:10.37,2013-11-25 21:13:00,
2013-11-25 16:18:00,32.4,6.4,28.20,WSW,248,6.7,6.7,33,0.00,CLR,OVC,0.00,WeatherDisplay:10.37,2013-11-25 21:18:00,
2013-11-25 16:23:00,32.4,6.4,28.20,WNW,285,4.5,5.8,33,0.00,CLR,OVC,0.00,WeatherDisplay:10.37,2013-11-25 21:23:00,
2013-11-25 16:28:00,32.4,6.4,28.20,WSW,253,4.9,8.1,33,0.00,CLR,OVC,0.00,WeatherDisplay:10.37,2013-11-25 21:28:00,
2013-11-25 16:33:00,32.2,6.9,28.20,WSW,239,4.5,4.6,34,0.00,CLR,OVC,0.00,WeatherDisplay:10.37,2013-11-25 21:33:00,
2013-11-25 16:38:00,32.0,6.8,28.20,SW,235,4.5,5.8,34,0.00,CLR,OVC,0.00,WeatherDisplay:10.37,2013-11-25 21:38:00,
2013-11-25 16:43:00,32.0,6.8,28.20,SW,235,4.5,5.8,34,0.00,CLR,OVC,0.00,WeatherDisplay:10.37,2013-11-25 21:43:00,
2013-11-25 16:48:00,31.8,6.6,28.20,WSW,239,3.1,3.5,34,0.00,CLR,OVC,0.00,WeatherDisplay:10.37,2013-11-25 21:48:00,
2013-11-25 16:53:00,31.8,7.2,28.20,WSW,239,3.1,3.5,35,0.00,CLR,OVC,0.00,WeatherDisplay:10.37,2013-11-25 21:53:00,
2013-11-25 16:58:00,31.6,6.4,28.23,WSW,239,3.1,3.5,34,0.00,CLR,OVC,0.00,WeatherDisplay:10.37,2013-11-25 21:58:00,
2013-11-25 17:03:00,31.6,7.1,28.23,West,262,5.8,8.1,35,0.00,CLR,OVC,0.00,WeatherDisplay:10.37,2013-11-25 22:03:00,
2013-11-25 17:08:00,31.6,7.1,28.23,West,259,5.4,8.1,35,0.00,CLR,OVC,0.00,WeatherDisplay:10.37,2013-11-25 22:08:00,
2013-11-25 17:13:00,31.6,7.1,28.23,SW,223,3.6,4.6,35,0.00,CLR,OVC,0.00,WeatherDisplay:10.37,2013-11-25 22:13:00,
2013-11-25 17:18:00,31.6,7.1,28.23,SW,231,4.9,8.1,35,0.00,CLR,OVC,0.00,WeatherDisplay:10.37,2013-11-25 22:18:00,
2013-11-25 17:23:00,31.6,7.1,28.23,WSW,251,3.6,5.8,35,0.00,CLR,OVC,0.00,WeatherDisplay:10.37,2013-11-25 22:23:00,
2013-11-25 17:28:00,31.6,7.1,28.23,West,279,6.7,10.4,35,0.00,CLR,OVC,0.00,WeatherDisplay:10.37,2013-11-25 22:28:00,
2013-11-25 17:33:00,31.6,7.1,28.23,West,268,2.2,3.5,35,0.00,CLR,OVC,0.00,WeatherDisplay:10.37,2013-11-25 22:33:00,
2013-11-25 17:38:00,31.3,7.4,28.23,WSW,257,5.4,5.8,36,0.00,CLR,OVC,0.00,WeatherDisplay:10.37,2013-11-25 22:38:00,
2013-11-25 17:43:00,31.3,7.4,28.23,WSW,254,5.8,9.2,36,0.00,CLR,OVC,0.00,WeatherDisplay:10.37,2013-11-25 22:43:00,
2013-11-25 17:48:00,31.3,7.4,28.23,WSW,237,3.6,5.8,36,0.00,CLR,OVC,0.00,WeatherDisplay:10.37,2013-11-25 22:48:00,
2013-11-25 17:53:00,31.3,7.4,28.23,SSW,209,4.9,5.8,36,0.00,CLR,OVC,0.00,WeatherDisplay:10.37,2013-11-25 22:53:00,
2013-11-25 17:58:00,31.5,7.5,28.23,WSW,257,5.4,5.4,36,0.00,CLR,OVC,0.00,WeatherDisplay:10.37,2013-11-25 22:58:00,
2013-11-25 18:03:00,31.5,7.5,28.23,WSW,258,3.1,3.5,36,0.00,CLR,OVC,0.00,WeatherDisplay:10.37,2013-11-25 23:03:00,
2013-11-25 18:08:00,31.3,7.4,28.23,West,266,2.7,5.8,36,0.00,CLR,OVC,0.00,WeatherDisplay:10.37,2013-11-25 23:08:00,
2013-11-25 18:13:00,31.3,7.4,28.23,WSW,238,3.6,3.6,36,0.00,CLR,OVC,0.00,WeatherDisplay:10.37,2013-11-25 23:13:00,
2013-11-25 18:18:00,31.3,7.4,28.23,West,265,5.8,8.1,36,0.00,CLR,OVC,0.00,WeatherDisplay:10.37,2013-11-25 23:18:00,
2013-11-25 18:23:00,31.5,7.5,28.23,WSW,258,3.6,5.8,36,0.00,CLR,OVC,0.00,WeatherDisplay:10.37,2013-11-25 23:23:00,
2013-11-25 18:28:00,31.5,7.5,28.23,West,268,4.9,8.1,36,0.00,CLR,OVC,0.00,WeatherDisplay:10.37,2013-11-25 23:28:00,
2013-11-25 18:33:00,31.5,7.5,28.23,WSW,246,4.9,8.1,36,0.00,CLR,OVC,0.00,WeatherDisplay:10.37,2013-11-25 23:33:00,
2013-11-25 18:38:00,31.5,7.5,28.23,West,279,3.1,3.5,36,0.00,CLR,OVC,0.00,WeatherDisplay:10.37,2013-11-25 23:38:00,
2013-11-25 18:43:00,31.5,7.5,28.23,SW,227,5.8,9.2,36,0.00,CLR,OVC,0.00,WeatherDisplay:10.37,2013-11-25 23:43:00,
2013-11-25 18:48:00,31.5,7.5,28.23,WSW,238,6.3,10.4,36,0.00,CLR,OVC,0.00,WeatherDisplay:10.37,2013-11-25 23:48:00,
2013-11-25 18:53:00,31.6,7.7,28.23,WSW,249,4.5,5.8,36,0.00,CLR,OVC,0.00,WeatherDisplay:10.37,2013-11-25 23:53:00,
2013-11-25 18:58:00,31.5,7.5,28.26,WSW,254,5.4,5.8,36,0.00,CLR,OVC,0.00,WeatherDisplay:10.37,2013-11-25 23:58:00,
2013-11-25 19:03:00,31.5,7.5,28.26,WSW,243,6.3,9.2,36,0.00,CLR,OVC,0.00,WeatherDisplay:10.37,2013-11-26 00:03:00,
2013-11-25 19:08:00,31.5,7.5,28.26,SW,235,3.6,5.8,36,0.00,CLR,OVC,0.00,WeatherDisplay:10.37,2013-11-26 00:08:00,
2013-11-25 19:13:00,31.5,6.9,28.26,SW,229,5.8,8.1,35,0.00,CLR,OVC,0.00,WeatherDisplay:10.37,2013-11-26 00:13:00,
2013-11-25 19:18:00,31.5,7.5,28.26,SW,236,6.7,8.1,36,0.00,CLR,OVC,0.00,WeatherDisplay:10.37,2013-11-26 00:18:00,
2013-11-25 19:23:00,31.5,6.9,28.26,WSW,257,7.2,8.1,35,0.00,CLR,OVC,0.00,WeatherDisplay:10.37,2013-11-26 00:23:00,
2013-11-25 19:28:00,31.5,6.9,28.26,WSW,237,7.2,9.2,35,0.00,CLR,OVC,0.00,WeatherDisplay:10.37,2013-11-26 00:28:00,
2013-11-25 19:33:00,31.5,7.5,28.26,SW,223,8.7,12.7,36,0.00,CLR,OVC,0.00,WeatherDisplay:10.37,2013-11-26 00:33:00,
2013-11-25 19:38:00,31.5,6.9,28.26,WSW,238,5.8,8.1,35,0.00,CLR,OVC,0.00,WeatherDisplay:10.37,2013-11-26 00:38:00,
2013-11-25 19:43:00,31.5,6.9,28.26,SW,233,5.4,8.1,35,0.00,CLR,OVC,0.00,WeatherDisplay:10.37,2013-11-26 00:43:00,
2013-11-25 19:48:00,31.5,6.9,28.26,West,261,5.8,8.1,35,0.00,CLR,OVC,0.00,WeatherDisplay:10.37,2013-11-26 00:48:00,
2013-11-25 19:53:00,31.5,6.9,28.26,West,264,4.9,5.8,35,0.00,CLR,OVC,0.00,WeatherDisplay:10.37,2013-11-26 00:53:00,
2013-11-25 19:58:00,31.1,6.6,28.26,SW,229,5.4,5.4,35,0.00,CLR,OVC,0.00,WeatherDisplay:10.37,2013-11-26 00:58:00,
2013-11-25 20:03:00,31.1,6.6,28.26,SW,229,5.4,5.4,35,0.00,CLR,OVC,0.00,WeatherDisplay:10.37,2013-11-26 01:03:00,
2013-11-25 20:08:00,31.1,6.6,28.26,SW,229,5.4,5.4,35,0.00,CLR,OVC,0.00,WeatherDisplay:10.37,2013-11-26 01:08:00,
2013-11-25 20:13:00,30.9,7.1,28.26,SW,229,5.4,5.4,36,0.00,CLR,OVC,0.00,WeatherDisplay:10.37,2013-11-26 01:13:00,
2013-11-25 20:18:00,31.1,7.2,28.26,SW,229,5.4,5.4,36,0.00,CLR,OVC,0.00,WeatherDisplay:10.37,2013-11-26 01:18:00,
2013-11-25 20:23:00,31.1,7.2,28.26,SW,229,5.4,5.4,36,0.00,CLR,OVC,0.00,WeatherDisplay:10.37,2013-11-26 01:23:00,
2013-11-25 20:28:00,30.9,8.2,28.26,SW,229,5.4,5.4,38,0.00,CLR,OVC,0.00,WeatherDisplay:10.37,2013-11-26 01:28:00,
2013-11-25 20:33:00,30.7,9.2,28.26,SW,229,5.4,5.4,40,0.00,CLR,OVC,0.00,WeatherDisplay:10.37,2013-11-26 01:33:00,
2013-11-25 20:38:00,30.4,9.5,28.26,SW,229,5.4,5.4,41,0.00,CLR,OVC,0.00,WeatherDisplay:10.37,2013-11-26 01:38:00,
2013-11-25 20:43:00,30.2,9.3,28.26,SW,229,5.4,5.4,41,0.00,CLR,OVC,0.00,WeatherDisplay:10.37,2013-11-26 01:43:00,
2013-11-25 20:48:00,30.2,9.8,28.26,SW,229,5.4,5.4,42,0.00,CLR,OVC,0.00,WeatherDisplay:10.37,2013-11-26 01:48:00,
2013-11-25 20:53:00,30.0,9.7,28.26,SW,229,5.4,5.4,42,0.00,CLR,OVC,0.00,WeatherDisplay:10.37,2013-11-26 01:53:00,
2013-11-25 20:58:00,29.8,9.5,28.26,SW,229,5.4,5.4,42,0.00,CLR,OVC,0.00,WeatherDisplay:10.37,2013-11-26 01:58:00,
2013-11-25 21:03:00,29.8,10.0,28.26,SW,229,5.4,5.4,43,0.00,CLR,OVC,0.00,WeatherDisplay:10.37,2013-11-26 02:03:00,
2013-11-25 21:08:00,29.8,10.0,28.26,SW,229,5.4,5.4,43,0.00,CLR,OVC,0.00,WeatherDisplay:10.37,2013-11-26 02:08:00,
2013-11-25 21:13:00,29.8,10.0,28.26,SW,229,5.4,5.4,43,0.00,CLR,OVC,0.00,WeatherDisplay:10.37,2013-11-26 02:13:00,
2013-11-25 21:18:00,29.8,10.0,28.26,SW,229,5.4,5.4,43,0.00,CLR,OVC,0.00,WeatherDisplay:10.37,2013-11-26 02:18:00,
2013-11-25 21:23:00,29.8,10.5,28.26,SW,229,5.4,5.4,44,0.00,CLR,OVC,0.00,WeatherDisplay:10.37,2013-11-26 02:23:00,
2013-11-25 21:28:00,29.8,10.5,28.26,SW,229,5.4,5.4,44,0.00,CLR,OVC,0.00,WeatherDisplay:10.37,2013-11-26 02:28:00,
2013-11-25 21:33:00,29.8,10.5,28.26,SW,229,5.4,5.4,44,0.00,CLR,OVC,0.00,WeatherDisplay:10.37,2013-11-26 02:33:00,
2013-11-25 21:38:00,29.7,9.9,28.26,SW,229,5.4,5.4,43,0.00,CLR,OVC,0.00,WeatherDisplay:10.37,2013-11-26 02:38:00,
2013-11-25 21:43:00,29.7,9.9,28.26,WSW,253,4.5,5.8,43,0.00,CLR,OVC,0.00,WeatherDisplay:10.37,2013-11-26 02:43:00,
2013-11-25 21:48:00,29.7,9.9,28.26,WSW,244,4.0,4.0,43,0.00,CLR,OVC,0.00,WeatherDisplay:10.37,2013-11-26 02:48:00,
2013-11-25 21:53:00,29.7,9.9,28.26,WSW,258,3.6,4.6,43,0.00,CLR,OVC,0.00,WeatherDisplay:10.37,2013-11-26 02:53:00,
2013-11-25 21:58:00,29.7,9.9,28.26,SW,233,4.5,5.8,43,0.00,CLR,OVC,0.00,WeatherDisplay:10.37,2013-11-26 02:58:00,
2013-11-25 22:03:00,29.5,9.7,28.26,SSW,210,4.9,4.9,43,0.00,CLR,OVC,0.00,WeatherDisplay:10.37,2013-11-26 03:03:00,
2013-11-25 22:08:00,29.3,9.5,28.26,WSW,257,4.9,4.9,43,0.00,CLR,OVC,0.00,WeatherDisplay:10.37,2013-11-26 03:08:00,
2013-11-25 22:13:00,29.1,9.4,28.26,WSW,253,4.0,4.6,43,0.00,CLR,OVC,0.00,WeatherDisplay:10.37,2013-11-26 03:13:00,
2013-11-25 22:18:00,28.6,8.9,28.26,SW,228,4.5,5.8,43,0.00,CLR,OVC,0.00,WeatherDisplay:10.37,2013-11-26 03:18:00,
2013-11-25 22:23:00,28.6,8.9,28.26,SW,229,2.7,3.5,43,0.00,CLR,OVC,0.00,WeatherDisplay:10.37,2013-11-26 03:23:00,
2013-11-25 22:28:00,28.6,8.9,28.26,West,277,3.6,5.8,43,0.00,CLR,OVC,0.00,WeatherDisplay:10.37,2013-11-26 03:28:00,
2013-11-25 22:33:00,28.6,8.9,28.26,West,263,2.2,5.8,43,0.00,CLR,OVC,0.00,WeatherDisplay:10.37,2013-11-26 03:33:00,
2013-11-25 22:38:00,28.6,8.9,28.26,SW,229,2.7,5.8,43,0.00,CLR,OVC,0.00,WeatherDisplay:10.37,2013-11-26 03:38:00,
2013-11-25 22:43:00,28.6,8.9,28.26,West,268,0.0,0.0,43,0.00,CLR,OVC,0.00,WeatherDisplay:10.37,2013-11-26 03:43:00,
2013-11-25 22:48:00,29.1,9.4,28.26,South,181,0.0,2.3,43,0.00,CLR,OVC,0.00,WeatherDisplay:10.37,2013-11-26 03:48:00,
2013-11-25 22:53:00,29.1,8.8,28.26,SW,215,3.6,3.6,42,0.00,CLR,OVC,0.00,WeatherDisplay:10.37,2013-11-26 03:53:00,
2013-11-25 22:58:00,29.1,8.8,28.26,SW,224,4.9,4.9,42,0.00,CLR,OVC,0.00,WeatherDisplay:10.37,2013-11-26 03:58:00,
2013-11-25 23:03:00,29.1,8.8,28.26,West,264,2.2,5.8,42,0.00,CLR,OVC,0.00,WeatherDisplay:10.37,2013-11-26 04:03:00,
2013-11-25 23:08:00,28.9,8.1,28.26,WSW,244,4.0,4.0,41,0.00,CLR,OVC,0.00,WeatherDisplay:10.37,2013-11-26 04:08:00,
2013-11-25 23:13:00,28.4,8.2,28.26,SSW,193,4.5,5.8,42,0.00,CLR,OVC,0.00,WeatherDisplay:10.37,2013-11-26 04:13:00,
2013-11-25 23:18:00,28.6,8.4,28.26,WSW,249,0.0,2.7,42,0.00,CLR,OVC,0.00,WeatherDisplay:10.37,2013-11-26 04:18:00,
2013-11-25 23:23:00,28.6,8.4,28.26,WSW,254,3.1,3.5,42,0.00,CLR,OVC,0.00,WeatherDisplay:10.37,2013-11-26 04:23:00,
2013-11-25 23:28:00,28.9,8.7,28.26,SSW,203,3.6,0.0,42,0.00,CLR,OVC,0.00,WeatherDisplay:10.37,2013-11-26 04:28:00,
2013-11-25 23:33:00,28.9,8.7,28.26,SSW,203,3.6,0.0,42,0.00,CLR,OVC,0.00,WeatherDisplay:10.37,2013-11-26 04:33:00,
2013-11-25 23:38:00,29.7,8.8,28.26,SSW,203,3.6,0.0,41,0.00,CLR,OVC,0.00,WeatherDisplay:10.37,2013-11-26 04:38:00,
2013-11-25 23:43:00,29.7,8.3,28.26,WSW,250,4.0,4.0,40,0.00,CLR,OVC,0.00,WeatherDisplay:10.37,2013-11-26 04:43:00,
2013-11-25 23:48:00,29.8,8.4,28.26,WSW,250,4.0,4.0,40,0.00,CLR,OVC,0.00,WeatherDisplay:10.37,2013-11-26 04:48:00,
2013-11-25 23:53:00,30.0,9.1,28.26,West,266,3.1,3.5,41,0.00,CLR,OVC,0.00,WeatherDisplay:10.37,2013-11-26 04:53:00,
2013-11-25 23:58:00,29.8,9.5,28.26,West,266,3.1,3.5,42,0.00,CLR,OVC,0.00,WeatherDisplay:10.37,2013-11-26 04:58:00,